This is the latest recevied weather packets stored in our database for station/object N4RCT. If no packets are shown the sender has not sent any weather packets the latest 10 day(s).
| Time | Temp. | Humidity | Pressure | Rain* | Wind** | Luminosity | Snow |
|---|---|---|---|---|---|---|---|
| 1777608239 | 12.78° C | 89% | 1012.9 hPa | 0 mm | - | 0 W/m² | - |
| 1777607937 | 12.78° C | 90% | 1012.9 hPa | 0 mm | - | 0 W/m² | - |
| 1777607632 | 12.78° C | 90% | 1012.7 hPa | 0 mm | - | 0 W/m² | - |
| 1777607329 | 12.22° C | 90% | 1012.9 hPa | 0 mm | - | 0 W/m² | - |
| 1777607025 | 12.22° C | 91% | 1013 hPa | 0 mm | - | 0 W/m² | - |
| 1777606720 | 12.22° C | 91% | 1013.1 hPa | 0 mm | - | 0 W/m² | - |
| 1777606416 | 12.22° C | 90% | 1013.1 hPa | 0 mm | - | 0 W/m² | - |
| 1777606111 | 12.22° C | 90% | 1012.9 hPa | 0 mm | - | 0 W/m² | - |
| 1777605808 | 12.22° C | 91% | 1013.1 hPa | 0 mm | - | 0 W/m² | - |
| 1777605507 | 12.22° C | 91% | 1013.1 hPa | 0 mm | - | 0 W/m² | - |
| 1777605203 | 12.22° C | 91% | 1013.1 hPa | 0 mm | - | 0 W/m² | - |
| 1777604899 | 12.22° C | 91% | 1013 hPa | 0 mm | - | 0 W/m² | - |
| 1777604595 | 12.22° C | 92% | 1013.2 hPa | 0 mm | - | 0 W/m² | - |
| 1777604292 | 12.22° C | 93% | 1013.2 hPa | 0 mm | - | 0 W/m² | - |
| 1777603987 | 12.78° C | 92% | 1013 hPa | 0 mm | - | 0 W/m² | - |
| 1777603684 | 12.78° C | 91% | 1013.2 hPa | 0 mm | - | 0 W/m² | - |
| 1777603380 | 12.78° C | 91% | 1013.3 hPa | 0 mm | - | 0 W/m² | - |
| 1777603076 | 12.78° C | 92% | 1013 hPa | 0 mm | - | 0 W/m² | - |
| 1777602771 | 12.78° C | 92% | 1013.1 hPa | 0 mm | - | 0 W/m² | - |
| 1777602466 | 12.22° C | 89% | 1013.2 hPa | 0 mm | - | 0 W/m² | - |
| 1777602163 | 12.78° C | 92% | 1013.1 hPa | 0 mm | - | 0 W/m² | - |
| 1777601858 | 12.78° C | 92% | 1013.1 hPa | 0 mm | - | 0 W/m² | - |
| 1777601553 | 12.22° C | 90% | 1012.9 hPa | 0 mm | - | 0 W/m² | - |
| 1777601249 | 12.78° C | 91% | 1012.6 hPa | 0 mm | - | 0 W/m² | - |
| 1777600946 | 12.78° C | 90% | 1012.6 hPa | 0 mm | - | 0 W/m² | - |
* Rain latest hour (hover to see other rain measurements)
** Current wind speed in m/s (hover to see current wind gust speed)